Location: Zagreb
(45.8000°N, 16.0000°E)
Time: 20:13:24
(UTC+01:00)

deb Explorer IX - Pass Details

Date: 11 October 2020
Orbit: 537 x 1106 km, 38.8° (Epoch: 30 October)

Event Time Altitude Azimuth Distance (km) Brightness Sun altitude
Rises 12:03:41 0° 210° (SSW) 3,890 ? 36.2°
Reaches altitude 10° 12:07:17 10° 194° (SSW) 2,895 ? 36.3°
Maximum altitude 12:12:09 20° 151° (SSE) 2,161 ? 36.5°
Drops below altitude 10° 12:16:43 10° 107° (ESE) 2,692 ? 36.6°
Sets 12:19:54 0° 91° (E) 3,539 ? 36.7°
